Location: Burg Strimelitz
(49.9021°N, 14.8167°E)
Time: 00:59:37
(UTC+00:00)

Daily predictions for brighter satellites

Satellite Brightness Start Highest point End
(mag) Time Altitude Azimuth Time Altitude Azimuth Time Altitude Azimuth
Cosmos 2333 Rocket 4.5 02:22:35 19° NE 02:22:35 19° NE 02:24:06 10° NE
COSMOS 2428 4.5 02:43:07 26° NE 02:43:07 26° NE 02:45:34 10° NE
USA 215 3.6 02:50:47 10° ENE 02:55:54 58° NE 02:55:54 58° NE
Cosmos 1943 Rocket 4.0 03:09:37 22° NNE 03:11:36 27° NE 03:16:22 10° E
Cosmos 540 Rocket 4.3 03:21:48 46° ENE 03:21:48 46° ENE 03:25:54 10° NNE
Cosmos 2369 Rocket 4.3 03:18:43 15° N 03:21:28 22° NE 03:25:43 10° E
Cosmos 2278 Rocket 4.2 03:36:40 17° S 03:36:40 17° S 03:37:51 10° S
COSMO-SKYMED 1 3.7 03:31:45 10° SE 03:35:20 42° E 03:35:20 42° E
SL-16 R/B 4.1 03:31:15 10° SSE 03:35:55 27° ESE 03:40:36 10° NE
Cosmos 2219 Rocket 3.3 03:41:53 31° N 03:41:53 31° N 03:45:07 10° NNE
Cosmos 2237 Rocket 2.2 03:43:06 71° SSE 03:43:37 77° ESE 03:49:20 10° NNE
ERS-2 3.6 03:47:46 10° SE 03:50:34 35° E 03:50:34 35° E
CBERS 1 LM4 rocket 4.5 03:46:21 10° NNE 03:51:45 83° NW 03:51:45 83° NW
BREEZE-M DEB (TANK) 4.0 03:55:50 48° W 03:57:39 57° SW 04:01:49 10° SE
Cosmos 1513 Rocket 4.3 03:57:03 46° SSW 03:58:58 73° W 04:05:09 10° N
Cosmos 1626 Rocket 4.3 04:00:29 45° SSE 04:00:29 45° SSE 04:03:34 10° S
Cosmos 2333 Rocket 3.4 04:04:35 28° NNW 04:04:35 28° NNW 04:08:14 10° NNE
FENGYUN 3A 3.6 03:59:43 10° N 04:04:53 64° WNW 04:04:53 64° WNW
Lacrosse 4 Rocket 1.9 04:04:26 50° SSE 04:05:10 58° ESE 04:09:29 10° NE
Cosmos 1763 Rocket 4.4 04:07:15 33° NNW 04:07:15 33° NNW 04:10:42 10° NNE
Cosmos 2297 3.7 04:08:14 32° NNW 04:11:01 83° ENE 04:16:47 10° SSE
Cosmos 1891 Rocket 4.4 04:10:02 50° WSW 04:11:13 58° WNW 04:17:13 10° N
USA 238 DEB 4.5 04:05:32 10° SSW 04:11:47 49° ESE 04:18:21 10° NE
USA 238 4.5 04:05:39 10° SSW 04:11:54 48° ESE 04:18:27 10° NE
deb Chang Zheng 4 4.1 04:09:25 10° NNE 04:13:36 55° ESE 04:17:44 10° S
Cosmos 2360 Rocket 4.0 04:15:25 16° NNW 04:15:25 16° NNW 04:17:54 10° N
SAR-Lupe-4 4.3 04:11:28 10° SSE 04:14:58 52° ENE 04:15:58 38° NNE
Cosmos 1464 Rocket 3.9 04:13:47 34° SW 04:16:23 59° WNW 04:22:30 10° N
Cosmos 841 Rocket 3.4 04:16:53 60° W 04:17:13 61° WNW 04:22:21 10° NNE
Cosmos 1980 3.7 04:17:06 53° W 04:18:06 61° NW 04:23:43 10° NNE
SL-16 R/B 4.3 04:18:48 11° NNW 04:18:48 11° NNW 04:20:16 10° N
Meteor 1-31 Rocket 3.6 04:14:43 10° N 04:17:17 39° N 04:17:17 39° N
MOS 1 Rocket 3.2 04:14:31 10° SSE 04:19:21 85° ENE 04:23:13 14° NNW
Meteor 1-21 Rocket 4.3 04:17:52 40° NW 04:19:33 54° W 04:25:13 10° S
Cosmos 2322 Rocket 4.3 04:20:13 12° NNW 04:20:13 12° NNW 04:21:51 10° N
Meteor 2-13 Rocket 4.4 04:14:21 10° NNW 04:20:25 59° W 04:26:25 10° S
Cosmos 1346 Rocket 3.3 04:18:51 19° N 04:21:33 58° ENE 04:25:29 10° SSE
SKYMED 2 3.4 04:19:34 10° S 04:23:52 65° WSW 04:23:56 65° W
COSMOS 2428 3.7 04:25:09 29° NW 04:25:09 29° NW 04:29:38 10° NNE
Cosmos 1758 Rocket 3.9 04:20:21 10° N 04:24:51 67° ENE 04:29:17 10° SSE
FALCON 9 DEB 3.6 04:28:14 53° NNE 04:28:14 53° NNE 04:31:11 10° ENE
SAR-Lupe-1 4.1 04:27:43 10° SSE 04:31:18 80° ENE 04:32:40 36° N
ATLAS CENTAUR R/B 0.9 04:31:44 72° SW 04:32:05 89° NW 04:35:47 10° NE
METEOR-M 4.2 04:27:01 10° N 04:32:12 51° WNW 04:34:34 30° SW
Cosmos 1689 Rocket 2.4 04:33:07 10° SSE 04:35:31 57° SSE 04:35:31 57° SSE
Cosmos 2150 Rocket 4.0 04:33:50 27° NW 04:36:40 63° WSW 04:42:01 10° S
Cosmos 2084 Rocket 4.0 04:37:18 41° WSW 04:37:20 41° SW 04:41:34 10° SSE
Cosmos 1092 Rocket 3.8 04:31:25 10° NNW 04:37:33 73° W 04:43:43 10° S
ALOS 3.5 04:35:24 10° N 04:37:53 25° NNW 04:37:53 25° NNW
USA 215 3.6 04:33:46 10° ENE 04:40:02 50° N 04:43:16 28° WNW
Cosmos 1602 Rocket 3.7 04:40:25 35° NW 04:41:54 49° W 04:46:13 10° SSW
ADEOS 3.7 04:37:32 10° N 04:42:35 50° WNW 04:47:35 10° SW
GEOS 3 Rocket 3.6 04:37:51 10° SE 04:43:15 89° SW 04:46:52 22° NW
BREEZE-M DEB (TANK) 2.1 04:44:16 60° ESE 04:44:16 60° ESE 04:46:27 10° E
YAOGAN 6 3.4 04:40:20 10° NNE 04:43:59 54° E 04:47:36 10° S
Cosmos 1908 4.0 04:45:31 33° NNW 04:45:31 33° NNW 04:48:05 10° N
Meteor 2-19 Rocket 4.4 04:39:31 10° N 04:45:41 85° E 04:51:47 10° S
USA 307 2.9 04:44:42 32° SW 04:46:34 76° SSE 04:50:48 10° ENE
CZ-2C R/B 4.4 04:43:18 10° NNW 04:44:43 15° NNW 04:44:43 15° NNW
Cosmos 1328 4.0 04:46:58 45° W 04:47:09 45° W 04:50:53 10° SSW
NOSS 0 Rocket 4.4 04:45:40 30° W 04:47:49 39° NW 04:53:36 10° NNE
Nadezhda 4 Rocket 4.3 04:42:15 10° NNW 04:47:51 39° W 04:53:27 10° SSW
BREEZE-M (TANK) 3.9 04:52:16 12° S 04:52:16 12° S 04:52:35 10° S
USA 305 2.8 04:50:49 30° WSW 04:52:52 84° SSE 04:57:07 10° ENE
Cosmos 2098 Rocket 3.4 04:47:36 10° N 04:53:29 82° W 04:58:04 10° S
Cosmos 1400 Rocket 3.2 04:53:20 24° SW 04:55:23 41° WNW 04:59:20 10° N
USA 308 2.9 04:53:18 27° WSW 04:55:33 84° SSE 04:59:51 10° ENE
Cosmos 1943 Rocket 2.1 04:51:10 15° NNW 04:55:55 72° WSW 05:01:33 10° SSE
Okean O Rocket 3.9 04:53:10 10° NE 04:56:53 27° E 05:00:35 10° SSE
SL-4 R/B 1.8 04:55:30 33° WSW 04:57:08 84° SSE 05:01:15 10° ENE
Cosmos 1825 Rocket 3.5 04:53:00 10° NNW 04:57:30 81° W 05:01:58 10° S
Cosmos 2034 Rocket 4.3 04:52:08 10° SW 04:58:08 42° WNW 05:04:10 10° N
SJ-12 4.4 04:57:05 10° N 05:00:55 37° WNW 05:04:12 13° SW
CZ-2C R/B 2.9 04:56:36 10° SSE 05:01:50 69° ENE 05:07:14 10° N
Cosmos 540 Rocket 4.3 05:01:39 26° WNW 05:02:47 28° NW 05:07:14 10° N
H-2A R/B 3.9 04:59:53 10° NNE 05:04:13 44° E 05:08:31 10° S
USA 306 2.8 05:02:37 24° WSW 05:05:07 87° NNW 05:09:23 10° ENE
Envisat 3.0 05:00:04 10° NNE 05:05:12 87° ESE 05:10:17 10° SSW
Cosmos 1125 Rocket 3.7 05:01:52 15° NW 05:06:07 48° WSW 05:11:12 10° S
Cosmos 2369 Rocket 2.2 05:00:43 10° NNW 05:06:22 86° ENE 05:11:58 10° SSE
NOSS 3-2 (A) 3.4 05:00:55 10° SW 05:06:42 78° NW 05:13:27 10° NE
Cosmos 1634 Rocket 3.9 05:02:05 10° SSW 05:08:14 70° WNW 05:14:27 10° N
CZ-4B R/B 3.0 05:06:37 10° N 05:10:04 40° WNW 05:13:35 10° SW
COSMO-SKYMED 1 3.7 05:08:46 10° SW 05:12:13 23° W 05:12:33 23° W
Cosmos 2266 Rocket 4.5 05:11:13 10° N 05:17:13 61° ENE 05:23:10 10° SSE
Cosmos 2228 2.9 05:14:09 10° SSW 05:18:21 66° WNW 05:22:35 10° N
SL-16 R/B 2.2 05:14:05 10° SW 05:19:39 59° WNW 05:25:18 10° NNE
NOSS 3-2 (C) 3.5 05:14:34 10° SW 05:20:18 86° SE 05:26:59 10° NE
DMSP B5D2-2 4.4 05:15:14 10° SSE 05:20:28 71° ENE 05:25:45 10° N
CZ-4B R/B 4.2 05:15:24 10° NNE 05:20:56 52° E 05:26:21 10° S
Cosmos 1953 Rocket 3.5 05:18:29 10° NNW 05:22:48 66° W 05:27:07 10° S
ERBS 3.6 05:20:06 10° SSW 05:23:13 40° SE 05:26:19 10° ENE
Cosmos 2026 Rocket 4.3 05:17:39 10° NNW 05:23:38 45° W 05:29:38 10° SSW
Cosmos 972 Rocket 4.5 05:18:01 10° SW 05:23:57 49° WNW 05:29:20 10° NNE
Cosmos 1943 4.5 05:18:55 10° S 05:24:19 46° ESE 05:29:45 10° NE
ERS-2 3.5 05:22:12 10° SW 05:24:51 19° W 05:25:09 19° W
Cosmos 2219 Rocket 3.9 05:23:36 13° NW 05:25:11 14° NNW 05:28:05 10° N
H-2A R/B 3.3 05:23:39 10° N 05:27:02 33° WNW 05:30:25 10° SW
CENTAUR R/B 2.6 05:21:32 10° SW 05:27:36 85° NW 05:34:54 10° NE
Cosmos 2237 Rocket 3.2 05:24:58 16° W 05:28:19 26° NW 05:33:03 10° NNE
Cosmos 1656 Rocket 3.7 05:27:16 10° NNW 05:32:45 82° ENE 05:38:10 10° SSE
CZ-4 R/B 4.5 05:30:33 10° NE 05:32:56 16° E 05:35:17 10° SE
FALCON 9 DEB 3.4 05:30:26 10° SW 05:33:32 58° SSE 05:36:38 10° ENE
Cosmos 1825 3.1 05:30:48 10° N 05:34:31 50° ENE 05:38:12 10° SSE
Cosmos 1606 Rocket 3.7 05:30:39 10° SSW 05:34:51 50° WNW 05:39:06 10° N
NOAA 6 4.0 05:30:56 10° NNE 05:36:09 74° WNW 05:41:18 10° SSW
Cosmos 1455 3.1 05:34:48 10° S 05:38:26 53° E 05:42:08 10° NNE
Cosmos 2058 3.2 05:34:36 10° N 05:38:44 69° ENE 05:42:48 10° SSE
AQUARIUS 4.2 05:36:30 10° NNE 05:41:02 86° ESE 05:45:32 10° SSW
FALCON 9 DEB 3.0 05:38:55 10° WSW 05:42:01 73° SSE 05:45:07 10° ENE
Lacrosse 4 Rocket 2.6 05:40:48 11° W 05:44:11 25° NW 05:47:53 10° NNE
Cosmos 1300 3.6 05:43:38 10° SW 05:46:54 27° WNW 05:50:11 10° NNW
Cosmos 2333 Rocket 4.1 05:47:36 10° NW 05:49:24 11° NNW 05:51:12 10° N
Cosmos 1315 Rocket 3.6 05:48:03 10° SW 05:51:30 29° WNW 05:54:59 10° N
Cosmos 1655 Rocket 4.0 05:46:22 10° NNW 05:52:35 66° W 05:58:48 10° S
Meteor 2-21 4.5 05:46:39 10° NNW 05:52:52 77° W 05:59:04 10° S
[s.n.47389] 3.8 05:50:34 10° SW 05:53:01 39° SSE 05:55:29 10° ENE
[s.n.47399] 3.8 05:50:36 10° SW 05:53:03 39° SSE 05:55:31 10° ENE
[s.n.47393] 3.8 05:50:38 10° SW 05:53:06 39° SSE 05:55:33 10° ENE
[s.n.47353] 3.8 05:50:43 10° SW 05:53:10 39° SSE 05:55:37 10° ENE
[s.n.47355] 3.8 05:50:46 10° SW 05:53:13 39° SSE 05:55:41 10° ENE
[s.n.47365] 3.8 05:50:48 10° SW 05:53:16 39° SSE 05:55:44 10° ENE
[s.n.47383] 3.8 05:50:53 10° SW 05:53:20 39° SSE 05:55:48 10° ENE
[s.n.47400] 3.8 05:50:52 10° SW 05:53:23 40° SSE 05:55:53 10° ENE
[s.n.47378] 3.8 05:50:59 10° SW 05:53:27 39° SSE 05:55:55 10° ENE
[s.n.47395] 3.8 05:51:03 10° SW 05:53:29 39° SSE 05:55:58 10° ENE
[s.n.47370] 3.8 05:51:09 10° SW 05:53:36 39° SSE 05:56:04 10° ENE
[s.n.47379] 3.8 05:51:08 10° SW 05:53:36 39° SSE 05:56:04 10° ENE
[s.n.47351] 3.8 05:51:10 10° SW 05:53:40 40° SSE 05:56:10 10° ENE
[s.n.47394] 3.8 05:51:15 10° SW 05:53:43 39° SSE 05:56:11 10° ENE
[s.n.47354] 3.8 05:51:19 10° SW 05:53:46 39° SSE 05:56:14 10° ENE
[s.n.47360] 3.8 05:51:21 10° SW 05:53:48 39° SSE 05:56:16 10° ENE
[s.n.47369] 3.8 05:51:26 10° SW 05:53:53 39° SSE 05:56:22 10° ENE
[s.n.47406] 3.8 05:51:28 10° SW 05:53:55 40° SSE 05:56:24 10° ENE
[s.n.47384] 3.8 05:51:31 10° SW 05:53:58 40° SSE 05:56:27 10° ENE
[s.n.47356] 3.8 05:51:34 10° SW 05:54:02 40° SSE 05:56:30 10° ENE
[s.n.47407] 3.8 05:51:37 10° SW 05:54:05 40° SSE 05:56:34 10° ENE
[s.n.47385] 3.8 05:51:37 10° SW 05:54:08 40° SSE 05:56:39 10° ENE
[s.n.47358] 3.8 05:51:45 10° SW 05:54:12 40° SSE 05:56:41 10° ENE
[s.n.47398] 3.8 05:51:47 10° SW 05:54:14 40° SSE 05:56:43 10° ENE
[s.n.47361] 3.8 05:51:51 10° SW 05:54:18 40° SSE 05:56:47 10° ENE
[s.n.47392] 3.8 05:51:52 10° SW 05:54:20 40° SSE 05:56:49 10° ENE
[s.n.47382] 3.8 05:51:57 10° SW 05:54:24 40° SSE 05:56:53 10° ENE
[s.n.47359] 3.8 05:51:57 10° SW 05:54:27 40° SSE 05:56:58 10° ENE
[s.n.47401] 3.7 05:52:04 10° SW 05:54:32 40° SSE 05:57:00 10° ENE
[s.n.47380] 3.8 05:52:03 10° SW 05:54:33 41° SSE 05:57:05 10° ENE
PAYLOAD B 4.2 05:49:02 10° NNE 05:54:36 69° WNW 06:00:09 10° SSW
[s.n.47386] 3.7 05:52:10 10° SW 05:54:38 40° SSE 05:57:07 10° ENE
[s.n.47408] 3.8 05:52:10 10° SW 05:54:40 41° SSE 05:57:12 10° ENE
[s.n.47396] 3.7 05:52:17 10° SW 05:54:45 40° SSE 05:57:13 10° ENE
[s.n.47391] 3.7 05:52:18 10° SW 05:54:46 40° SSE 05:57:16 10° ENE
[s.n.47402] 3.7 05:52:22 10° SW 05:54:50 40° SSE 05:57:19 10° ENE
[s.n.47404] 3.7 05:52:25 10° SW 05:54:53 40° SSE 05:57:22 10° ENE
[s.n.47403] 3.7 05:52:29 10° SW 05:54:56 40° SSE 05:57:26 10° ENE
NOAA 11 4.2 05:49:27 10° NNE 05:54:57 88° WNW 06:00:24 10° SSW
[s.n.47381] 3.7 05:52:32 10° SW 05:55:00 40° SSE 05:57:29 10° ENE
[s.n.47372] 3.7 05:52:36 10° SW 05:55:04 40° SSE 05:57:32 10° ENE
[s.n.47405] 3.7 05:52:38 10° SW 05:55:06 40° SSE 05:57:35 10° ENE
[s.n.47368] 3.7 05:52:43 10° SW 05:55:11 41° SSE 05:57:40 10° ENE
[s.n.47350] 3.7 05:52:45 10° SW 05:55:13 41° SSE 05:57:42 10° ENE
[s.n.47349] 3.7 05:52:45 10° SW 05:55:15 41° SSE 05:57:48 10° ENE
[s.n.47367] 3.7 05:52:50 10° SW 05:55:19 41° SSE 05:57:49 10° ENE
[s.n.47373] 3.7 05:52:51 10° SW 05:55:22 41° SSE 05:57:54 10° ENE
[s.n.47377] 3.7 05:52:55 10° SW 05:55:25 41° SSE 05:57:58 10° ENE
[s.n.47371] 3.7 05:52:57 10° SW 05:55:28 41° SSE 05:58:00 10° ENE
[s.n.47362] 3.7 05:53:00 10° SW 05:55:31 41° SSE 05:58:03 10° ENE
[s.n.47363] 3.7 05:53:04 10° SW 05:55:35 41° SSE 05:58:07 10° ENE
[s.n.47374] 3.7 05:53:09 10° SW 05:55:38 41° SSE 05:58:09 10° ENE
[s.n.47357] 3.7 05:53:13 10° SW 05:55:42 41° SSE 05:58:12 10° ENE
[s.n.47390] 3.7 05:53:17 10° SW 05:55:45 41° SSE 05:58:15 10° ENE
[s.n.47387] 3.7 05:53:20 10° SW 05:55:48 41° SSE 05:58:18 10° ENE
[s.n.47375] 3.7 05:53:21 10° SW 05:55:49 41° SSE 05:58:18 10° ENE
[s.n.47376] 3.7 05:53:20 10° SW 05:55:51 42° SSE 05:58:24 10° ENE
[s.n.47366] 3.7 05:53:30 10° SW 05:55:58 41° SSE 05:58:29 10° ENE
[s.n.47352] 3.7 05:53:31 10° SW 05:56:01 42° SSE 05:58:33 10° ENE
[s.n.47364] 3.7 05:53:35 10° SW 05:56:06 42° SSE 05:58:37 10° ENE
[s.n.47388] 3.7 05:53:39 10° SW 05:56:09 42° SSE 05:58:40 10° ENE
[s.n.47397] 3.7 05:53:45 10° SW 05:56:14 41° SSE 05:58:44 10° ENE
ATLAS 3B R/B 3.8 05:54:25 10° SSW 06:00:40 49° ESE 06:07:04 10° NE
Meteor 2-14 Rocket 4.5 05:56:14 10° NNW 06:02:21 69° W 06:08:27 10° S
USA 238 DEB 3.9 05:56:16 10° WSW 06:02:45 52° NW 06:09:37 10° NE
USA 238 3.9 05:56:22 10° WSW 06:02:51 53° NW 06:09:43 10° NE
NOAA 12 4.1 05:57:55 10° N 06:03:09 62° WNW 06:08:22 10° SSW
Cosmos 783 Rocket 4.5 05:59:28 10° SSW 06:04:38 70° WNW 06:09:52 10° NNE
FALCON 9 DEB 3.5 06:01:42 10° WNW 06:05:02 51° N 06:08:23 10° E
Cosmos 2151 4.1 06:05:05 10° N 06:09:13 47° ENE 06:13:18 10° SSE
Cosmos 1441 Rocket 3.6 06:05:34 10° NNW 06:09:20 44° W 06:13:03 10° SSW
